SP3OTE-2 Weather Reports


Display with metric or nautical units.
time (UTC)temp
F
wind
direction
speed
MPH
gust
MPH
rain 1hr
in
rain 24hr
in
rain mn
in
humidity
%
barometer
mb
20260503035524 44 0.0 0.0 0.00 0.00 0.00 79 1018.5
20260503034524 44 0.0 0.0 0.00 0.00 0.00 79 1018.5
20260503033524 43 0.0 0.0 0.00 0.00 0.00 78 1018.4
20260503032523 44 0.0 0.0 0.00 0.00 0.00 77 1018.5
20260503031523 44 0.0 0.0 0.00 0.00 0.00 76 1018.5
20260503030523 44 0.0 0.0 0.00 0.00 0.00 76 1018.5
20260503025523 45 0.0 0.0 0.00 0.00 0.00 75 1018.6
20260503024522 45 0.0 0.0 0.00 0.00 0.00 75 1018.6
20260503023522 45 0.0 0.0 0.00 0.00 0.00 74 1018.6
20260503022522 45 0.0 0.0 0.00 0.00 0.00 73 1018.7
20260503021522 46 0.0 0.0 0.00 0.00 0.00 72 1018.8
20260503020522 47 0.0 0.0 0.00 0.00 0.00 71 1018.8
20260503015521 47 0.0 0.0 0.00 0.00 0.00 71 1018.9
20260503014521 47 0.0 0.0 0.00 0.00 0.00 70 1018.9
20260503013521 47 0.0 0.0 0.00 0.00 0.00 70 1019.0
20260503012521 48 0.0 0.0 0.00 0.00 0.00 68 1018.9
20260503011520 48 0.0 0.0 0.00 0.00 0.00 68 1018.9
20260503010520 48 0.0 0.0 0.00 0.00 0.00 68 1019.0
20260503005520 49 0.0 0.0 0.00 0.00 0.00 66 1018.9
20260503004520 49 0.0 0.0 0.00 0.00 0.00 65 1019.1
20260503003520 50 0.0 0.0 0.00 0.00 0.00 66 1019.1
20260503002519 50 0.0 0.0 0.00 0.00 0.00 64 1019.2
20260503001519 50 0.0 0.0 0.00 0.00 0.00 64 1019.2
20260503000519 50 0.0 0.0 0.00 0.00 0.00 62 1019.1
20260502235518 51 0.0 0.0 0.00 0.00 0.00 60 1019.2
20260502234518 52 0.0 0.0 0.00 0.00 0.00 58 1019.4
20260502233518 53 0.0 0.0 0.00 0.00 0.00 56 1019.4
20260502232518 55 0.0 0.0 0.00 0.00 0.00 54 1019.4
20260502231518 55 0.0 0.0 0.00 0.00 0.00 54 1019.4
20260502230517 54 0.0 0.0 0.00 0.00 0.00 55 1019.3
20260502225517 54 0.0 0.0 0.00 0.00 0.00 55 1019.3
20260502224517 55 0.0 0.0 0.00 0.00 0.00 54 1019.3
20260502223516 56 0.0 0.0 0.00 0.00 0.00 51 1019.4
20260502222516 57 0.0 0.0 0.00 0.00 0.00 50 1019.4
20260502221516 58 0.0 0.0 0.00 0.00 0.00 49 1019.3
20260502220516 59 0.0 0.0 0.00 0.00 0.00 48 1019.5
20260502215515 60 0.0 0.0 0.00 0.00 0.00 48 1019.5
20260502214516 60 0.0 0.0 0.00 0.00 0.00 47 1019.6
20260502213515 60 0.0 0.0 0.00 0.00 0.00 47 1019.5
20260502212515 61 0.0 0.0 0.00 0.00 0.00 47 1019.4
20260502211515 60 0.0 0.0 0.00 0.00 0.00 48 1019.5
20260502210515 59 0.0 0.0 0.00 0.00 0.00 49 1019.5
20260502205514 57 0.0 0.0 0.00 0.00 0.00 55 1019.7
20260502204514 55 0.0 0.0 0.00 0.00 0.00 56 1019.9
20260502203514 56 0.0 0.0 0.00 0.00 0.00 56 1019.9
20260502202513 56 0.0 0.0 0.00 0.00 0.00 54 1019.9
20260502201513 57 0.0 0.0 0.00 0.00 0.00 54 1020.0
20260502200513 57 0.0 0.0 0.00 0.00 0.00 53 1019.9
20260502195513 58 0.0 0.0 0.00 0.00 0.00 52 1020.0
20260502194512 59 0.0 0.0 0.00 0.00 0.00 50 1019.9
20260502193512 60 0.0 0.0 0.00 0.00 0.00 50 1019.9
20260502192512 60 0.0 0.0 0.00 0.00 0.00 48 1019.9
20260502191512 62 0.0 0.0 0.00 0.00 0.00 47 1019.9
20260502190511 62 0.0 0.0 0.00 0.00 0.00 46 1019.8
20260502185511 63 0.0 0.0 0.00 0.00 0.00 45 1019.8
20260502184511 65 0.0 0.0 0.00 0.00 0.00 43 1019.7
20260502183511 66 0.0 0.0 0.00 0.00 0.00 42 1019.8
20260502182510 68 0.0 0.0 0.00 0.00 0.00 41 1019.7
20260502181510 70 0.0 0.0 0.00 0.00 0.00 39 1019.6
20260502180510 72 0.0 0.0 0.00 0.00 0.00 36 1019.6
20260502170508 93 0.0 0.0 0.00 0.00 0.00 23 1019.6
20260502163507 96 0.0 0.0 0.00 0.00 0.00 24 1020.0
20260502162507 96 0.0 0.0 0.00 0.00 0.00 24 1020.0
20260502161507 96 0.0 0.0 0.00 0.00 0.00 24 1020.1
20260502160505 95 0.0 0.0 0.00 0.00 0.00 24 1020.3
20260502151503 93 0.0 0.0 0.00 0.00 0.00 25 1020.7
20260502150503 93 0.0 0.0 0.00 0.00 0.00 24 1020.9
20260502130500 83 0.0 0.0 0.00 0.00 0.00 29 1022.1
20260502123459 80 0.0 0.0 0.00 0.00 0.00 30 1022.4
20260502122459 79 0.0 0.0 0.00 0.00 0.00 32 1022.5
20260502121459 79 0.0 0.0 0.00 0.00 0.00 32 1022.7
20260502120457 79 0.0 0.0 0.00 0.00 0.00 32 1022.9
20260502115457 78 0.0 0.0 0.00 0.00 0.00 32 1023.0
20260502114457 77 0.0 0.0 0.00 0.00 0.00 33 1023.1
20260502113456 76 0.0 0.0 0.00 0.00 0.00 34 1023.3
20260502112456 74 0.0 0.0 0.00 0.00 0.00 34 1023.5
20260502111456 74 0.0 0.0 0.00 0.00 0.00 33 1023.6
20260502110456 73 0.0 0.0 0.00 0.00 0.00 34 1023.7
20260502105455 73 0.0 0.0 0.00 0.00 0.00 35 1023.8
20260502104455 72 0.0 0.0 0.00 0.00 0.00 35 1023.9
20260502103455 72 0.0 0.0 0.00 0.00 0.00 35 1023.9
20260502102455 71 0.0 0.0 0.00 0.00 0.00 34 1024.0
20260502101454 71 0.0 0.0 0.00 0.00 0.00 36 1024.4
20260502100454 70 0.0 0.0 0.00 0.00 0.00 35 1024.5
20260502091453 69 0.0 0.0 0.00 0.00 0.00 37 1024.9
20260502090453 69 0.0 0.0 0.00 0.00 0.00 38 1024.9
20260502071450 62 0.0 0.0 0.00 0.00 0.00 52 1025.5
20260502070450 61 0.0 0.0 0.00 0.00 0.00 52 1025.5
20260502065450 60 0.0 0.0 0.00 0.00 0.00 55 1025.5
20260502064449 59 0.0 0.0 0.00 0.00 0.00 59 1025.5
20260502063449 57 0.0 0.0 0.00 0.00 0.00 64 1025.6
20260502062449 56 0.0 0.0 0.00 0.00 0.00 66 1025.6
20260502061449 55 0.0 0.0 0.00 0.00 0.00 69 1025.7
20260502060448 54 0.0 0.0 0.00 0.00 0.00 73 1025.6
20260502055448 53 0.0 0.0 0.00 0.00 0.00 76 1025.6
20260502054448 52 0.0 0.0 0.00 0.00 0.00 79 1025.6
20260502053448 51 0.0 0.0 0.00 0.00 0.00 81 1025.6
20260502052447 49 0.0 0.0 0.00 0.00 0.00 84 1025.6
20260502051447 48 0.0 0.0 0.00 0.00 0.00 87 1025.7
20260502050447 47 0.0 0.0 0.00 0.00 0.00 89 1025.8
20260502045447 46 0.0 0.0 0.00 0.00 0.00 90 1025.7
20260502044447 45 0.0 0.0 0.00 0.00 0.00 91 1025.7
20260502043446 43 0.0 0.0 0.00 0.00 0.00 91 1025.8
20260502042446 42 0.0 0.0 0.00 0.00 0.00 90 1025.8
20260502041446 41 0.0 0.0 0.00 0.00 0.00 90 1025.8
20260502040445 41 0.0 0.0 0.00 0.00 0.00 89 1025.7